星链-30533 (STARLINK-30533 )

导读 | 星芒AI

STARLINK-30533 是 SpaceX Starlink 卫星互联网项目中的一颗低轨卫星,属于第三代星链卫星(v1.5 或 v2 版本)。该卫星于2023年发射,部署在约550公里高度的近地轨道,旨在为全球提供高速、低延迟的宽带互联网服务。Starlink 卫星采用先进推进系统和激光通信技术,以提升网络性能并减少空间碎片风险。STARLINK-30533 的运行有助于扩大 Starlink 在偏远和农村地区的覆盖范围,支持通信、应急响应和商业应用。

基本信息
目录编号:
58037
目录名称:
STARLINK-30533
国际标识:
2023-156K
轨道中心:
EARTH
卫星名称:
星链-30533
卫星全名:
星链-30533 (STARLINK-30533 )
卫星状态:
在轨 (已飞行802 天)
发射日期:
2023-10-09 UTC
国别 :
美国 (US)
星等 :
--
轨道信息
数据来源 国际轨道数据 AOE轨道数据
星历时间 2025-12-19T02:33:44+0800
22小时前
查看轨道信息
2025-12-19T00:00:00+0800
1天前
查看轨道信息
半长轴 6853.341km 6853.426km
偏心率 0.000137 0.0001653
轨道倾角 53.157° 53.158°
近地点辐角 97.722° 90.749°
升交点赤经 184.053° 184.550°
平近点角 262.394° 40.933°
近地点 474.267km 474.158km
远地点 476.145km 476.424km
周期 94.105分钟 94.107分钟
每日圈数 15.30204 15.301755
详细信息
固有亮度:
5
最大亮度:
0.3
卫星平台:
Starlink v2.0 mini
覆盖范围:
全球
运营商:
太空探索技术公司
运营商所在国:
美国
制造商(研发单位):
太空探索技术公司
制造商所在国:
美国
使用方式:
暂无
卫星简介
星链(Starlink)计划是由太空探索技术公司(SpaceX)提出的一个巨型低轨卫星互联网星座项目,计划在2019年至2024年间在太空搭建由约1.2万颗卫星组成的“星链”网络,其中1584颗将部署在地球上空550千米处的近地轨道,并从2020年开始工作。该卫星仍在工作。
2D轨道图
3D轨道图
轨道高度分析图
轨道倾角分析图
轨道综合分析图
查看轨道综合分析图